Gaz Unity — HOEJ — position and weather

sailwx.info

Track history (hours):
 
Tides and Currents Weather Stations Pressure Air Temp Water Temp Dewpoint Dewpoint Depression Visibility Wind Speed Wind Dir Waves Ship Positions

Gaz Unity

Last reported at 2014-Aug-28 23:30 UTC. Time now 2014-Aug-29 01:35 UTC.
Position N 37°43' E 007°30'.

Length 228 m; draft 7.9 m.

Type: Ship (hazmat cat C). MMSI: 353956000.

Date/timePositionNaut miles runAvg speedWind from/ knotsBaromVisibWave heightAir tempDewpointWater temp
2014-Aug-28 23:30N 37°43' E 007°30'1212.4
2014-Aug-28 22:33N 37°45' E 007°45'2512.6
2014-Aug-28 20:33N 37°48' E 008°16'1312.2
2014-Aug-28 19:29N 37°50' E 008°33'1112.2
2014-Aug-28 18:34N 37°52' E 008°47'1212.1
2014-Aug-28 17:34N 37°53' E 009°02'1212.0
2014-Aug-28 16:33N 37°51' E 009°17'1211.9
2014-Aug-28 15:33N 37°46' E 009°31'1211.8
2014-Aug-28 14:33N 37°43' E 009°45'1211.9
2014-Aug-28 13:33N 37°39' E 009°60'1212.1
2014-Aug-28 12:33N 37°39' E 010°15'1212.0
2014-Aug-28 11:33N 37°39' E 010°30'3511.8
2014-Aug-28 08:33N 37°27' E 011°12'2712.4
2014-Aug-28 06:22N 37°14' E 011°42'2312.7
2014-Aug-28 04:33N 37°02' E 012°06'1512.7
2014-Aug-28 03:22N 36°55' E 012°23'1012.6
2014-Aug-28 02:33N 36°50' E 012°35'1312.5
2014-Aug-28 01:33N 36°45' E 012°49'1212.3
2014-Aug-28 00:33N 36°38' E 013°02'1212.2
2014-Aug-27 23:34N 36°29' E 013°11'1211.9
2014-Aug-27 22:34N 36°20' E 013°20'1211.8
2014-Aug-27 21:34N 36°10' E 013°30'1212.2
2014-Aug-27 20:33N 36°01' E 013°39'1312.7
2014-Aug-27 19:33N 35°51' E 013°49'1313.0
2014-Aug-27 18:34N 35°41' E 013°59'1312.7
2014-Aug-27 17:33N 35°39' E 014°15'1312.6
2014-Aug-27 16:32N 35°38' E 014°31'1212.5
2014-Aug-27 15:33N 35°38' E 014°46'1312.5
2014-Aug-27 14:34N 35°38' E 015°01'7 7.4
2014-Aug-27 13:33N 35°38' E 015°10'0 0.5
2014-Aug-27 12:33N 35°38' E 015°10'0 0.4
2014-Aug-27 11:34N 35°38' E 015°09'0 0.2
2014-Aug-27 10:34N 35°39' E 015°09'1 0.6
2014-Aug-27 09:33N 35°38' E 015°09'1 0.5
2014-Aug-27 08:34N 35°38' E 015°09'0 0.4
2014-Aug-27 07:34N 35°39' E 015°09'0 0.2
2014-Aug-27 06:33N 35°39' E 015°09'1 0.8
2014-Aug-27 05:33N 35°39' E 015°08'1 1.0
2014-Aug-27 04:34N 35°40' E 015°07'1 1.1
2014-Aug-27 03:33N 35°40' E 015°06'1 1.1
2014-Aug-27 02:33N 35°41' E 015°04'1 0.9
2014-Aug-27 01:34N 35°41' E 015°03'1 0.9
2014-Aug-27 00:33N 35°41' E 015°02'1 0.8
2014-Aug-26 23:26N 35°41' E 015°01'1 0.7
2014-Aug-26 22:33N 35°42' E 015°01'0 0.3
2014-Aug-26 21:33N 35°41' E 015°01'4 4.2
2014-Aug-26 20:33N 35°39' E 015°05'0 0.4
2014-Aug-26 19:34N 35°38' E 015°05'0 0.5
2014-Aug-26 18:33N 35°38' E 015°04'0 0.5
2014-Aug-26 17:34N 35°39' E 015°04'0 0.4
2014-Aug-26 16:34N 35°39' E 015°03'0 0.4
2014-Aug-26 15:33N 35°39' E 015°03'0 0.5
2014-Aug-26 14:33N 35°39' E 015°03'1 0.6
2014-Aug-26 13:34N 35°40' E 015°02'1 0.8
2014-Aug-26 12:33N 35°41' E 015°02'1 0.9
2014-Aug-26 11:33N 35°41' E 015°01'1 0.8
2014-Aug-26 10:34N 35°42' E 015°01'7 1.2
2014-Aug-26 04:33N 35°41' E 015°10'2 1.1
2014-Aug-26 03:04N 35°42' E 015°08'2 1.0
2014-Aug-26 00:33N 35°44' E 015°06'1 0.6
2014-Aug-25 23:04N 35°45' E 015°05'0 0.7
2014-Aug-25 22:33N 35°45' E 015°05'8 8.4
2014-Aug-25 21:34N 35°44' E 015°15'34413.1
2014-Aug-24 19:22N 35°55' E 022°19'1012.8
2014-Aug-24 18:34N 35°56' E 022°32'1312.6
2014-Aug-24 17:33N 35°56' E 022°47'1312.7
2014-Aug-24 16:33N 35°56' E 023°03'2912.6
2014-Aug-24 14:14N 36°22' E 023°20'912.7
2014-Aug-24 13:33N 36°30' E 023°23'1412.7
2014-Aug-24 12:28N 36°43' E 023°29'1212.7
2014-Aug-24 11:33N 36°54' E 023°36'1413.7
2014-Aug-24 10:33N 37°05' E 023°45'1413.8
2014-Aug-24 09:32N 37°17' E 023°55'1313.1
2014-Aug-24 08:33N 37°28' E 024°04'2612.8
2014-Aug-24 06:31N 37°48' E 024°25'4413.4
2014-Aug-24 03:16N 38°25' E 024°54'1014.0
2014-Aug-24 02:31N 38°34' E 024°59'1413.0
2014-Aug-24 01:25N 38°47' E 025°08'2010.5
2014-Aug-23 23:33N 39°04' E 025°19'5 2.7
2014-Aug-23 21:33N 39°09' E 025°23'2914.0
2014-Aug-23 19:31N 39°35' E 025°39'16910.6
2014-Aug-23 03:32N 40°57' E 028°53'0 0.0
2014-Aug-23 02:32N 40°57' E 028°53'0 0.0
2014-Aug-23 01:20N 40°57' E 028°53'0 0.0
2014-Aug-23 00:32N 40°57' E 028°53'0 0.0
2014-Aug-22 22:26N 40°57' E 028°53'0 0.0
2014-Aug-22 21:32N 40°57' E 028°53'0 0.0
2014-Aug-22 20:32N 40°57' E 028°53'0 0.0
2014-Aug-22 19:32N 40°57' E 028°53'0 0.0
2014-Aug-22 18:20N 40°57' E 028°53'0 0.0
2014-Aug-22 17:20N 40°57' E 028°53'0 0.0
2014-Aug-22 16:14N 40°57' E 028°53'0 0.1
2014-Aug-22 11:33N 40°57' E 028°53'4 3.9
2014-Aug-22 10:32N 40°56' E 028°58'9 9.1
2014-Aug-22 09:33N 40°48' E 029°05'6 6.3
2014-Aug-22 08:33N 40°51' E 029°12'2 1.7
2014-Aug-22 07:33N 40°51' E 029°14'2 1.7
2014-Aug-22 06:29N 40°51' E 029°16'0 0.0
2014-Aug-22 05:32N 40°51' E 029°16'0 0.0
2014-Aug-22 04:32N 40°51' E 029°16'0 0.0
2014-Aug-22 03:32N 40°51' E 029°16'0 0.0
2014-Aug-22 02:32N 40°51' E 029°16'0 0.0
2014-Aug-22 01:32N 40°51' E 029°16'0 0.0
2014-Aug-22 00:32N 40°51' E 029°16'0 0.0
2014-Aug-21 23:32N 40°51' E 029°16'0 0.0
2014-Aug-21 22:26N 40°51' E 029°16'0 0.0
2014-Aug-21 21:26N 40°51' E 029°16'0 0.0
2014-Aug-21 20:32N 40°51' E 029°16'0 0.0
2014-Aug-21 19:32N 40°51' E 029°16'0 0.0
2014-Aug-21 18:32N 40°51' E 029°16'0 0.0
2014-Aug-21 17:32N 40°51' E 029°16'0 0.0
2014-Aug-21 16:20N 40°51' E 029°16'0 0.0
2014-Aug-21 15:32N 40°51' E 029°16'0 0.0
2014-Aug-21 14:32N 40°51' E 029°16'0 0.0
2014-Aug-21 13:32N 40°51' E 029°16'0 0.0
2014-Aug-21 12:32N 40°51' E 029°16'0 0.0
2014-Aug-21 11:32N 40°51' E 029°16'0 0.0
2014-Aug-21 10:26N 40°51' E 029°16'0 0.0
2014-Aug-21 09:14N 40°51' E 029°16'0 0.0
2014-Aug-21 08:32N 40°51' E 029°16'0 0.0
2014-Aug-21 07:32N 40°51' E 029°16'0 0.0
2014-Aug-21 06:32N 40°51' E 029°16'0 0.0
2014-Aug-21 05:32N 40°51' E 029°16'0 0.0
2014-Aug-21 04:32N 40°51' E 029°16'0 0.0
2014-Aug-21 03:32N 40°51' E 029°16'0 0.0
2014-Aug-21 02:32N 40°51' E 029°16'0 0.0
2014-Aug-21 01:32N 40°51' E 029°16'0 0.0
2014-Aug-21 00:32N 40°51' E 029°16'0 0.0
2014-Aug-20 23:32N 40°51' E 029°16'0 0.0
2014-Aug-20 22:32N 40°51' E 029°16'0 0.0
2014-Aug-20 21:32N 40°51' E 029°16'0 0.0
2014-Aug-20 20:17N 40°51' E 029°16'0 0.0
2014-Aug-20 19:29N 40°51' E 029°16'0 0.0
2014-Aug-20 18:23N 40°51' E 029°16'0 0.0
2014-Aug-20 17:23N 40°51' E 029°16'0 0.0
2014-Aug-20 16:29N 40°51' E 029°16'0 0.0
2014-Aug-20 15:29N 40°51' E 029°16'0 0.0
2014-Aug-20 14:17N 40°51' E 029°16'0 0.0
2014-Aug-20 13:29N 40°51' E 029°16'0 0.0
2014-Aug-20 12:17N 40°51' E 029°16'0 0.0
2014-Aug-20 11:29N 40°51' E 029°16'0 0.0
2014-Aug-20 10:29N 40°51' E 029°16'0 0.0
2014-Aug-20 09:29N 40°51' E 029°16'0 0.0
2014-Aug-20 08:11N 40°51' E 029°16'0 0.0
2014-Aug-20 07:23N 40°51' E 029°16'0 0.0
2014-Aug-20 06:29N 40°51' E 029°16'0 0.0
2014-Aug-20 05:29N 40°51' E 029°16'0 0.0
2014-Aug-20 03:29N 40°51' E 029°16'0 0.0
2014-Aug-20 02:23N 40°51' E 029°16'0 0.0
2014-Aug-20 01:29N 40°51' E 029°16'0 0.0
2014-Aug-20 00:23N 40°51' E 029°16'0 0.0
2014-Aug-19 23:29N 40°51' E 029°16'0 0.0
2014-Aug-19 22:29N 40°51' E 029°16'0 0.0
2014-Aug-19 21:17N 40°51' E 029°16'0 0.0
2014-Aug-19 20:29N 40°51' E 029°16'0 0.0
2014-Aug-19 19:29N 40°51' E 029°16'0 0.0
2014-Aug-19 18:29N 40°51' E 029°16'0 0.0
2014-Aug-19 17:29N 40°51' E 029°16'0 0.0
2014-Aug-19 16:23N 40°51' E 029°16'0 0.0
2014-Aug-19 15:23N 40°51' E 029°16'0 0.0
2014-Aug-19 14:29N 40°51' E 029°16'0 0.0
2014-Aug-19 13:29N 40°51' E 029°16'0 0.0
2014-Aug-19 12:29N 40°51' E 029°16'0 0.0
2014-Aug-19 11:23N 40°51' E 029°16'0 0.0
2014-Aug-19 10:29N 40°51' E 029°16'0 0.0
2014-Aug-19 09:29N 40°51' E 029°16'0 0.0
2014-Aug-19 08:23N 40°51' E 029°16'0 0.0
2014-Aug-19 07:29N 40°51' E 029°16'0 0.0
2014-Aug-19 06:17N 40°51' E 029°16'0 0.0
2014-Aug-19 05:29N 40°51' E 029°16'0 0.0
2014-Aug-19 04:29N 40°51' E 029°16'0 0.0
2014-Aug-19 03:23N 40°51' E 029°16'0 0.0
2014-Aug-19 02:29N 40°51' E 029°16'0 0.0
2014-Aug-19 01:29N 40°51' E 029°16'0 0.0
2014-Aug-19 00:29N 40°51' E 029°16'  
Track history (hours):
 
Tides and Currents Weather Stations Pressure Air Temp Water Temp Dewpoint Dewpoint Depression Visibility Wind Speed Wind Dir Waves Ship Positions

Gaz Unity

Last reported at 2014-Aug-28 23:30 UTC. Time now 2014-Aug-29 01:35 UTC.
Position N 37°43' E 007°30'.

Length 228 m; draft 7.9 m.

Type: Ship (hazmat cat C). MMSI: 353956000.

Date/timePositionNaut miles runAvg speedWind from/ knotsBaromVisibWave heightAir tempDewpointWater temp
2014-Aug-28 23:30N 37°43' E 007°30'1212.4
2014-Aug-28 22:33N 37°45' E 007°45'2512.6
2014-Aug-28 20:33N 37°48' E 008°16'1312.2
2014-Aug-28 19:29N 37°50' E 008°33'1112.2
2014-Aug-28 18:34N 37°52' E 008°47'1212.1
2014-Aug-28 17:34N 37°53' E 009°02'1212.0
2014-Aug-28 16:33N 37°51' E 009°17'1211.9
2014-Aug-28 15:33N 37°46' E 009°31'1211.8
2014-Aug-28 14:33N 37°43' E 009°45'1211.9
2014-Aug-28 13:33N 37°39' E 009°60'1212.1
2014-Aug-28 12:33N 37°39' E 010°15'1212.0
2014-Aug-28 11:33N 37°39' E 010°30'3511.8
2014-Aug-28 08:33N 37°27' E 011°12'2712.4
2014-Aug-28 06:22N 37°14' E 011°42'2312.7
2014-Aug-28 04:33N 37°02' E 012°06'1512.7
2014-Aug-28 03:22N 36°55' E 012°23'1012.6
2014-Aug-28 02:33N 36°50' E 012°35'1312.5
2014-Aug-28 01:33N 36°45' E 012°49'1212.3
2014-Aug-28 00:33N 36°38' E 013°02'1212.2
2014-Aug-27 23:34N 36°29' E 013°11'1211.9
2014-Aug-27 22:34N 36°20' E 013°20'1211.8
2014-Aug-27 21:34N 36°10' E 013°30'1212.2
2014-Aug-27 20:33N 36°01' E 013°39'1312.7
2014-Aug-27 19:33N 35°51' E 013°49'1313.0
2014-Aug-27 18:34N 35°41' E 013°59'1312.7
2014-Aug-27 17:33N 35°39' E 014°15'1312.6
2014-Aug-27 16:32N 35°38' E 014°31'1212.5
2014-Aug-27 15:33N 35°38' E 014°46'1312.5
2014-Aug-27 14:34N 35°38' E 015°01'7 7.4
2014-Aug-27 13:33N 35°38' E 015°10'0 0.5
2014-Aug-27 12:33N 35°38' E 015°10'0 0.4
2014-Aug-27 11:34N 35°38' E 015°09'0 0.2
2014-Aug-27 10:34N 35°39' E 015°09'1 0.6
2014-Aug-27 09:33N 35°38' E 015°09'1 0.5
2014-Aug-27 08:34N 35°38' E 015°09'0 0.4
2014-Aug-27 07:34N 35°39' E 015°09'0 0.2
2014-Aug-27 06:33N 35°39' E 015°09'1 0.8
2014-Aug-27 05:33N 35°39' E 015°08'1 1.0
2014-Aug-27 04:34N 35°40' E 015°07'1 1.1
2014-Aug-27 03:33N 35°40' E 015°06'1 1.1
2014-Aug-27 02:33N 35°41' E 015°04'1 0.9
2014-Aug-27 01:34N 35°41' E 015°03'1 0.9
2014-Aug-27 00:33N 35°41' E 015°02'1 0.8
2014-Aug-26 23:26N 35°41' E 015°01'1 0.7
2014-Aug-26 22:33N 35°42' E 015°01'0 0.3
2014-Aug-26 21:33N 35°41' E 015°01'4 4.2
2014-Aug-26 20:33N 35°39' E 015°05'0 0.4
2014-Aug-26 19:34N 35°38' E 015°05'0 0.5
2014-Aug-26 18:33N 35°38' E 015°04'0 0.5
2014-Aug-26 17:34N 35°39' E 015°04'0 0.4
2014-Aug-26 16:34N 35°39' E 015°03'0 0.4
2014-Aug-26 15:33N 35°39' E 015°03'0 0.5
2014-Aug-26 14:33N 35°39' E 015°03'1 0.6
2014-Aug-26 13:34N 35°40' E 015°02'1 0.8
2014-Aug-26 12:33N 35°41' E 015°02'1 0.9
2014-Aug-26 11:33N 35°41' E 015°01'1 0.8
2014-Aug-26 10:34N 35°42' E 015°01'7 1.2
2014-Aug-26 04:33N 35°41' E 015°10'2 1.1
2014-Aug-26 03:04N 35°42' E 015°08'2 1.0
2014-Aug-26 00:33N 35°44' E 015°06'1 0.6
2014-Aug-25 23:04N 35°45' E 015°05'0 0.7
2014-Aug-25 22:33N 35°45' E 015°05'8 8.4
2014-Aug-25 21:34N 35°44' E 015°15'34413.1
2014-Aug-24 19:22N 35°55' E 022°19'1012.8
2014-Aug-24 18:34N 35°56' E 022°32'1312.6
2014-Aug-24 17:33N 35°56' E 022°47'1312.7
2014-Aug-24 16:33N 35°56' E 023°03'2912.6
2014-Aug-24 14:14N 36°22' E 023°20'912.7
2014-Aug-24 13:33N 36°30' E 023°23'1412.7
2014-Aug-24 12:28N 36°43' E 023°29'1212.7
2014-Aug-24 11:33N 36°54' E 023°36'1413.7
2014-Aug-24 10:33N 37°05' E 023°45'1413.8
2014-Aug-24 09:32N 37°17' E 023°55'1313.1
2014-Aug-24 08:33N 37°28' E 024°04'2612.8
2014-Aug-24 06:31N 37°48' E 024°25'4413.4
2014-Aug-24 03:16N 38°25' E 024°54'1014.0
2014-Aug-24 02:31N 38°34' E 024°59'1413.0
2014-Aug-24 01:25N 38°47' E 025°08'2010.5
2014-Aug-23 23:33N 39°04' E 025°19'5 2.7
2014-Aug-23 21:33N 39°09' E 025°23'2914.0
2014-Aug-23 19:31N 39°35' E 025°39'16910.6
2014-Aug-23 03:32N 40°57' E 028°53'0 0.0
2014-Aug-23 02:32N 40°57' E 028°53'0 0.0
2014-Aug-23 01:20N 40°57' E 028°53'0 0.0
2014-Aug-23 00:32N 40°57' E 028°53'0 0.0
2014-Aug-22 22:26N 40°57' E 028°53'0 0.0
2014-Aug-22 21:32N 40°57' E 028°53'0 0.0
2014-Aug-22 20:32N 40°57' E 028°53'0 0.0
2014-Aug-22 19:32N 40°57' E 028°53'0 0.0
2014-Aug-22 18:20N 40°57' E 028°53'0 0.0
2014-Aug-22 17:20N 40°57' E 028°53'0 0.0
2014-Aug-22 16:14N 40°57' E 028°53'0 0.1
2014-Aug-22 11:33N 40°57' E 028°53'4 3.9
2014-Aug-22 10:32N 40°56' E 028°58'9 9.1
2014-Aug-22 09:33N 40°48' E 029°05'6 6.3
2014-Aug-22 08:33N 40°51' E 029°12'2 1.7
2014-Aug-22 07:33N 40°51' E 029°14'2 1.7
2014-Aug-22 06:29N 40°51' E 029°16'0 0.0
2014-Aug-22 05:32N 40°51' E 029°16'0 0.0
2014-Aug-22 04:32N 40°51' E 029°16'0 0.0
2014-Aug-22 03:32N 40°51' E 029°16'0 0.0
2014-Aug-22 02:32N 40°51' E 029°16'0 0.0
2014-Aug-22 01:32N 40°51' E 029°16'0 0.0
2014-Aug-22 00:32N 40°51' E 029°16'0 0.0
2014-Aug-21 23:32N 40°51' E 029°16'0 0.0
2014-Aug-21 22:26N 40°51' E 029°16'0 0.0
2014-Aug-21 21:26N 40°51' E 029°16'0 0.0
2014-Aug-21 20:32N 40°51' E 029°16'0 0.0
2014-Aug-21 19:32N 40°51' E 029°16'0 0.0
2014-Aug-21 18:32N 40°51' E 029°16'0 0.0
2014-Aug-21 17:32N 40°51' E 029°16'0 0.0
2014-Aug-21 16:20N 40°51' E 029°16'0 0.0
2014-Aug-21 15:32N 40°51' E 029°16'0 0.0
2014-Aug-21 14:32N 40°51' E 029°16'0 0.0
2014-Aug-21 13:32N 40°51' E 029°16'0 0.0
2014-Aug-21 12:32N 40°51' E 029°16'0 0.0
2014-Aug-21 11:32N 40°51' E 029°16'0 0.0
2014-Aug-21 10:26N 40°51' E 029°16'0 0.0
2014-Aug-21 09:14N 40°51' E 029°16'0 0.0
2014-Aug-21 08:32N 40°51' E 029°16'0 0.0
2014-Aug-21 07:32N 40°51' E 029°16'0 0.0
2014-Aug-21 06:32N 40°51' E 029°16'0 0.0
2014-Aug-21 05:32N 40°51' E 029°16'0 0.0
2014-Aug-21 04:32N 40°51' E 029°16'0 0.0
2014-Aug-21 03:32N 40°51' E 029°16'0 0.0
2014-Aug-21 02:32N 40°51' E 029°16'0 0.0
2014-Aug-21 01:32N 40°51' E 029°16'0 0.0
2014-Aug-21 00:32N 40°51' E 029°16'0 0.0
2014-Aug-20 23:32N 40°51' E 029°16'0 0.0
2014-Aug-20 22:32N 40°51' E 029°16'0 0.0
2014-Aug-20 21:32N 40°51' E 029°16'0 0.0
2014-Aug-20 20:17N 40°51' E 029°16'0 0.0
2014-Aug-20 19:29N 40°51' E 029°16'0 0.0
2014-Aug-20 18:23N 40°51' E 029°16'0 0.0
2014-Aug-20 17:23N 40°51' E 029°16'0 0.0
2014-Aug-20 16:29N 40°51' E 029°16'0 0.0
2014-Aug-20 15:29N 40°51' E 029°16'0 0.0
2014-Aug-20 14:17N 40°51' E 029°16'0 0.0
2014-Aug-20 13:29N 40°51' E 029°16'0 0.0
2014-Aug-20 12:17N 40°51' E 029°16'0 0.0
2014-Aug-20 11:29N 40°51' E 029°16'0 0.0
2014-Aug-20 10:29N 40°51' E 029°16'0 0.0
2014-Aug-20 09:29N 40°51' E 029°16'0 0.0
2014-Aug-20 08:11N 40°51' E 029°16'0 0.0
2014-Aug-20 07:23N 40°51' E 029°16'0 0.0
2014-Aug-20 06:29N 40°51' E 029°16'0 0.0
2014-Aug-20 05:29N 40°51' E 029°16'0 0.0
2014-Aug-20 03:29N 40°51' E 029°16'0 0.0
2014-Aug-20 02:23N 40°51' E 029°16'0 0.0
2014-Aug-20 01:29N 40°51' E 029°16'0 0.0
2014-Aug-20 00:23N 40°51' E 029°16'0 0.0
2014-Aug-19 23:29N 40°51' E 029°16'0 0.0
2014-Aug-19 22:29N 40°51' E 029°16'0 0.0
2014-Aug-19 21:17N 40°51' E 029°16'0 0.0
2014-Aug-19 20:29N 40°51' E 029°16'0 0.0
2014-Aug-19 19:29N 40°51' E 029°16'0 0.0
2014-Aug-19 18:29N 40°51' E 029°16'0 0.0
2014-Aug-19 17:29N 40°51' E 029°16'0 0.0
2014-Aug-19 16:23N 40°51' E 029°16'0 0.0
2014-Aug-19 15:23N 40°51' E 029°16'0 0.0
2014-Aug-19 14:29N 40°51' E 029°16'0 0.0
2014-Aug-19 13:29N 40°51' E 029°16'0 0.0
2014-Aug-19 12:29N 40°51' E 029°16'0 0.0
2014-Aug-19 11:23N 40°51' E 029°16'0 0.0
2014-Aug-19 10:29N 40°51' E 029°16'0 0.0
2014-Aug-19 09:29N 40°51' E 029°16'0 0.0
2014-Aug-19 08:23N 40°51' E 029°16'0 0.0
2014-Aug-19 07:29N 40°51' E 029°16'0 0.0
2014-Aug-19 06:17N 40°51' E 029°16'0 0.0
2014-Aug-19 05:29N 40°51' E 029°16'0 0.0
2014-Aug-19 04:29N 40°51' E 029°16'0 0.0
2014-Aug-19 03:23N 40°51' E 029°16'0 0.0
2014-Aug-19 02:29N 40°51' E 029°16'0 0.0
2014-Aug-19 01:29N 40°51' E 029°16'0 0.0
2014-Aug-19 00:29N 40°51' E 029°16'  

Dump ship's entire track history